Content
SEND FEEDBACK

Daily
Averages
Monthly
Summary
Canada

BRANTFORD, ONTARIO


Home > North America > Canada > Ontario
Elevation: 815 feet     Latitude: 43 08N     Longitude: 080 21W

WEATHER
 
SELECT A DAY
Number of Records: 129,828;   Date Range: 5/15/00 - 9/19/14
 
SHARE

PRINT THIS DATA

[ ← Previous Day ]
WEATHER ALMANAC - MAY 25, 2013
[ Next Day → ]
[ °C ]   °F
Weather ElementAverageHighLow
Temperature48.2 °F60.4 °F (4:00 pm)34.9 °F (6:00 am)
Dewpoint30.4 °F33.4 °F (11:00 pm)28 °F (1:00 pm)
Humidity52.4 %87 % (1:00 am)23 % (2:00 pm)
Barometer30.27 in30.31 in (7:00 am)30.22 in (5:00 pm)
Wind Speed8.7 mph13.8 mph (5:00 pm)
Wind Gust21.9 mph (11:00 am)
Weather ElementAverage
Wind DirectionNNW (335.6 °)

Weather ElementTotal
Precipitation---
Heating Degree Days17.4 (Base 65)
Averaged from 27 records on May 25, 2013
WEATHER CONDITIONS BREAKOUT
WIND DIRECTION BREAKOUT
WEATHER BY HOUR - MAY 25, 2013
[ °C ]   °F
Local TimeTemperatureDewpointHumidityBarometerVisibilityWind DirectionWind SpeedGust SpeedPrecipitationEventsConditions
1:00 AM35.2 °F31.6 °F87 %30.29 inNW (310°)4.6 mph
2:00 AM36.0 °F31.0 °F77 %30.29 inNW (320°)5.8 mph
2:00 AM36.3 °F31.5 °F83 %30.29 inNW (320°)5.8 mph
3:00 AM36.9 °F29.8 °F76 %30.28 inNNW (330°)5.8 mph
4:00 AM37.6 °F29.3 °F72 %30.27 inNNW (330°)6.9 mph
5:00 AM36.7 °F29.3 °F75 %30.27 inNorth (350°)3.5 mph
6:00 AM34.9 °F29.8 °F82 %30.30 inNW (320°)4.6 mph
7:00 AM38.3 °F31.5 °F76 %30.31 inNNW (330°)4.6 mph
8:00 AM43.0 °F33.0 °F57 %30.30 inNNW (330°)6.9 mph
8:00 AM43.3 °F31.3 °F62 %30.30 inNNW (330°)6.9 mph
9:00 AM47.1 °F30.4 °F52 %30.30 inNNW (340°)8.1 mph
10:00 AM50.0 °F29.7 °F46 %30.31 inNNW (330°)12.7 mph19.6 mph
11:00 AM52.5 °F28.6 °F40 %30.31 inNNW (340°)11.5 mph21.9 mph
12:00 PM54.3 °F29.7 °F39 %30.30 inNorth (350°)10.4 mph18.4 mph
1:00 PM55.9 °F28.0 °F34 %30.27 inNNW (340°)10.4 mph18.4 mph
2:00 PM57.0 °F29.0 °F23 %30.26 inNorth (350°)11.5 mph
2:00 PM57.0 °F29.3 °F35 %30.26 inNorth (350°)11.5 mph19.6 mph
3:00 PM59.4 °F29.5 °F32 %30.25 inNNW (330°)11.5 mph19.6 mph
4:00 PM60.4 °F29.1 °F31 %30.23 inNorth (350°)12.7 mph20.7 mph
5:00 PM60.3 °F30.2 °F32 %30.22 inNNW (340°)13.8 mph20.7 mph
6:00 PM59.2 °F29.5 °F32 %30.23 inNNW (330°)12.7 mph21.9 mph
7:00 PM57.9 °F29.5 °F34 %30.23 inNNW (340°)12.7 mph20.7 mph
8:00 PM55.0 °F31.0 °F27 %30.23 inNorth (350°)11.5 mph
8:00 PM55.0 °F30.7 °F40 %30.23 inNorth (350°)11.5 mph19.6 mph
9:00 PM50.5 °F31.5 °F48 %30.23 inNNW (340°)6.9 mph
10:00 PM46.9 °F33.3 °F59 %30.24 inNNW (330°)4.6 mph
11:00 PM44.8 °F33.4 °F64 %30.25 inNNW (330°)5.8 mph
Hourly data recorded from CXDI, located miles away from Brantford, Ontario







STORIES FROM OUR PARTNERS